METEOR 2-5 DEB, 45510

Orbit data source: Space-Track

METEOR 2-5 DEB, 45510 is space debris in LEO originally from a launch on Wed, 31 Oct 1979 UTC launched from the Plesetsk Missile And Space Complex (PKMTR). Debris objects in space refer to the collection of defunct objects orbiting the Earth. Examples of debris include non-operational satellites, rocket bodies, and fragments generated from explosions, collisions, or faulty payload assembly.

Loading next visibility...
Identifier
45510, 1979-095CS
Orbit
LEO
Country
Flag of CISCIS
Related business
Manufacturer
Unknown
Mission
Spacecraft
Bus & Motor
Unknown
Mass
Unknown
Launch date (UTC)
1979-10-31 (47 years ago)
Launch vehicle
Unknown
Launch site
Plesetsk Missile And Space Complex (PKMTR)
Object type
Payload
Rocket body
Debris
Shape & HBR
Unknown shape, 0.1 m
Radar Cross Section
Small (<0.1 m²)

Expand to show TLE details & history
Last TLE update: 6 days ago

TLE from 6 days ago
0 METEOR 2-5 DEB
1 45510U 79095CS  26118.64783052  .00001369  00000-0  59449-3 0  9991
2 45510  81.1907 251.8575 0008909 344.5285  15.5620 14.23708494435444
Epoch: 2026-04-28T15:32Z
TLE epoch observation values (Epoch: 2026-04-28T15:32:52.556Z)
Latitude
Longitude
162.01838°
Altitude
809.582 km
Speed
7.452 km/s
True Right ascension
16h 47m 25s
True Declination
0° 00' 00"
Sunlit
Object was in full shadow at epoch
Visualization orbit readout
Latitude
Unknown
Longitude
Unknown
Altitude
Unknown
Speed
Unknown
Apparent Right ascension
Unknown
Apparent Declination
Unknown
Sunlit
N/A
Visualization observer readout
Local Sidereal Time
13:21:14
Azimuth
Unknown
Elevation
Unknown
Doppler factor
Unknown
Orbital elements
Apogee altitude
816.401 km
Perigee altitude
803.593 km
Semi-major axis
7,188.134 km
Eccentricity
0.00089
Inclination
81.1907°
RAAN
251.8575°
Arg. of periapsis
344.5285°
True anomaly
15.58942°
Mean anomaly
15.562°
Eccentric anomaly
15.57571°
Mean motion
3.56139 °/min
Orbital period
101.08 mins
BSTAR
0.00059449
Loading maneuver chart data...
Computing Atmospheric mass density...
Loading historical data...
Loading historical data...
Loading historical data...
Loading historical data...
Loading historical data...
Loading historical data...
Loading historical data...

Documentation

Showing up to 5 results
|